Location: Arpaise
(41.0333°N, 14.7333°E)
Time: 16:58:44
(UTC+00:00)

Atlas Centaur 2 - Pass Details

Date: 05 July 2020
Orbit: 459 x 1310 km, 30.4° (Epoch: 10 August)

Event Time Altitude Azimuth Distance (km) Brightness Sun altitude
Rises 20:28:45 0° 252° (WSW) 3,314 5.6 -16.6°
Reaches altitude 10° 20:31:16 10° 243° (WSW) 2,517 4.8 -16.9°
Maximum altitude 20:36:41 33° 181° (S) 1,641 3.3 -17.5°
Enters shadow 20:38:51 27° 150° (SSE) 1,902 3.4 -17.7°
